Weather Roundup
Issued by NWS

Home | Current Version | Previous Version | Graphics & Text | Print | Product List | Glossary Off
Versions: 1 2 3 4 5 6 7 8 9 10 11 12 13 14 15 16 17 18 19 20 21 22 23 24 25 26 27 28 29 30 31 32 33 34 35 36 37 38 39 40 41 42 43 44 45 46 47 48 49 50

254
NZUS93 KARX 240059
HRRWXR

CURRENT HOURLY OBSERVATIONS ACROSS
MUCH OF THE UPPER MISSISSIPPI VALLEY
NATIONAL WEATHER SERVICE LA CROSSE WI
800 PM CDT SAT SEP 23 2017


...SOUTHEAST MINNESOTA...


CITY           SKY/WX    TMP DP  RH WIND       PRES   REMARKS
ROCHESTER      CLEAR     76  64  66 S6        29.98R
ROCHESTER/MAYO FAIR      82  63  52 SE5       29.97R
WINONA         CLOUDY    77  66  69 CALM      29.96R
AUSTIN         CLEAR     79  63  57 S3        29.97R
ALBERT LEA     PTCLDY    82  64  54 S8        29.95S
DODGE CENTER   CLEAR     75  63  64 S8        29.97R
PRESTON        CLEAR     77  62  59 S3        29.99S
OWATONNA       PTCLDY    79  64  61 S7        29.94S
FARIBAULT      MOCLDY    79  66  65 SE5       29.93S
$$

...ELSEWHERE IN MINNESOTA...


CITY           SKY/WX    TMP DP  RH WIND       PRES   REMARKS
MINNEAPOLIS    CLOUDY    83  71  67 SE7       29.91S
INTNL FALLS    CLOUDY    56  53  90 N7        30.06R
DULUTH         CLOUDY    69  69 100 N7        29.99R
RED WING       PTCLDY    79  66  65 E3        29.92S
REDWOOD FALLS  CLOUDY    64  61  90 NE6       29.92F
MANKATO        MOCLDY    80  66  62 S5        29.92R
WORTHINGTON    CLOUDY    64  63  96 NE7       29.94S
FAIRMONT       PTCLDY    77  65  66 S9        29.92R
$$

...SOUTHWEST WISCONSIN...


CITY           SKY/WX    TMP DP  RH WIND       PRES   REMARKS
LA CROSSE      CLEAR     82  65  56 S6        29.96R
PRAIRIE DU CHI CLEAR     81  62  53 E5        29.98R
BOSCOBEL       CLEAR     75  67  76 CALM      29.99S
LONE ROCK      NOT AVBL
PLATTEVILLE    CLEAR     80  64  57 SE7       30.03R
FORT MC COY    CLOUDY    75  68  77 E6        30.00R
MAUSTON-NEW LI CLEAR     74  67  80 CALM      30.00S
VIROQUA        FAIR      79  65  62 SE7       30.02S
WIS DELLS      CLEAR     74  64  69 CALM      30.02S
$$

...ELSEWHERE IN WISCONSIN...


CITY           SKY/WX    TMP DP  RH WIND       PRES   REMARKS
MILWAUKEE      CLEAR     79  66  64 S5        30.05R
MADISON        CLEAR     76  67  73 CALM      30.02S
GREEN BAY      CLEAR     77  70  79 S7        30.03R
EAU CLAIRE     NOT AVBL
BLACK RVR FLS  FAIR      79  63  58 SE3       29.98R
MEDFORD        PTCLDY    74  65  75 CALM      30.02S
WAUSAU         PTCLDY    77  65  66 SE5       30.01S
WIS RAPIDS     CLEAR     72  67  84 SE6       30.02S
MARSHFIELD     PTCLDY    76  64  66 S5        30.01S
RICE LAKE      CLOUDY    77  68  74 SE3       29.98S
$$

...NORTHEAST IOWA...


CITY           SKY/WX    TMP DP  RH WIND       PRES   REMARKS
WATERLOO       CLEAR     80  61  52 SE7       29.96R
DUBUQUE        CLEAR     78  64  61 SE7       30.02S
DECORAH        MOCLDY    81  64  57 SE7       29.98R
MASON CITY     PTCLDY    76  62  62 S8        29.98R
CHARLES CITY   CLEAR     79  63  57 S7        29.98R
OELWEIN        CLEAR     77  63  61 SE7       30.00R
$$

...ELSEWHERE IN IOWA...


CITY           SKY/WX    TMP DP  RH WIND       PRES   REMARKS
DES MOINES     MOCLDY    84  64  50 SE9       29.95R
IOWA CITY      CLEAR     82  65  56 CALM      29.99S
FORT DODGE     CLEAR     83  64  52 S7        29.95R
MARSHALLTOWN   PTCLDY    80  64  58 SE6       29.97R
CEDAR RAPIDS   CLEAR     77  63  61 SE3       29.98R
$$

...NORTHERN ILLINOIS...


CITY           SKY/WX    TMP DP  RH WIND       PRES   REMARKS
CHICAGO-OHARE  CLEAR     83  65  54 SE7       30.04R
CHICAGO-MIDWAY CLEAR     83  67  58 E7        30.04R
MOLINE         CLEAR     77  67  71 S6        29.99S
ROCKFORD       PTCLDY    80  64  58 SE3       30.04R
PEORIA         CLEAR     84  63  49 CALM      30.01S
$$

NOTE: "FAIR" INDICATES FEW OR NO CLOUDS BELOW 12,000 FEET WITH NO
SIGNIFICANT WEATHER AND/OR OBSTRUCTIONS TO VISIBILITY. WIND
SPEEDS ARE IN MILES-PER-HOUR.




USA.gov is the U.S. government's official web portal to all federal, state and local government web resources and services.